Temperature
9 9 9 9 9 9 9 9 9 9 9 9 9 9 9 9 9 9 9 9 9 9 9 9 9 9 9 9 9 9 10 10 10 9 10 10 10 10 10 9 9 9 10
9 9 9 9 9 9 9 9 9 8 8 8 9 9 9 9 9 9 9 9 9 9 9 9 9 9 9 8 9 9 9 9 9 9 9 9 9 9 9 9 9 9 9
8 8 8 8 8 8 8 8 8 8 8 8 8 8 8 8 8 8 8 8 8 8 8 8 8 8 8 8 8 8 9 9 9 9 9 9 9 9 9 9 9 9 9
7 7 8 8 8 8 8 8 8 8 7 7 7 7 8 7 8 8 8 8 8 8 8 8 8 8 8 8 8 8 8 8 8 8 8 8 8 8 8 8 8 8 8
7 7 7 7 7 7 7 7 7 7 7 7 7 7 7 7 7 7 7 7 7 7 7 7 7 7 7 7 7 7 7 7 8 8 8 8 8 8 8 8 8 8 8
6 6 6 6 6 6 6 6 6 6 6 6 6 6 6 6 6 6 6 6 6 6 6 6 6 7 7 7 7 7 7 7 7 7 8 8 8 8 8 8 8 8 8
6 5 5 5 6 6 6 6 6 6 6 6 5 5 6 6 6 6 6 6 6 6 6 6 6 6 6 6 6 6 6 7 7 7 7 7 7 7 7 7 7 7 7
5 5 5 5 5 5 5 5 5 5 5 5 4 4 4 5 5 5 5 5 5 5 5 5 5 5 5 5 6 6 6 6 6 6 6 6 7 7 7 7 7 7 7
5 4 4 4 4 4 4 4 4 4 4 4 4 4 3 4 4 4 5 5 4 4 4 4 5 5 5 5 5 5 5 5 5 6 6 6 6 6 6 6 6 6 6
4 4 4 4 4 3 4 4 4 4 4 4 4 3 3 3 3 3 3 4 4 4 4 4 4 4 4 4 4 4 4 5 5 5 5 5 5 6 6 6 6 6 6
3 3 3 3 3 3 3 3 3 3 3 3 3 3 2 2 2 2 2 3 3 3 3 3 3 4 4 4 4 4 4 4 4 5 5 5 5 5 5 5 5 5 5
2 2 2 2 2 2 2 2 2 2 2 2 2 2 2 2 2 1 1 2 2 3 3 3 3 3 3 3 3 3 3 4 4 4 4 4 4 5 5 5 5 5 5
2 2 1 1 1 1 2 2 1 2 2 2 1 1 1 1 1 1 1 1 1 2 2 2 2 2 2 2 3 3 3 3 3 3 3 3 4 4 4 4 4 4 4
1 1 1 1 1 1 1 1 1 1 1 1 1 1 1 1 1 1 1 0 0 1 1 1 2 2 2 2 2 2 2 2 2 3 3 3 3 3 3 4 4 4 4
-0 -0 -0 -0 0 0 0 0 0 0 0 0 0 0 0 0 0 0 0 -0 -0 -1 -0 1 1 1 1 1 1 1 1 2 2 2 2 2 2 3 3 3 3 3 3
-1 -1 -1 -1 -1 -1 -1 -1 -0 -0 -0 -0 -0 -0 -0 -0 -0 -0 -0 -0 -1 -1 -1 -0 0 1 0 0 0 1 1 1 1 1 1 2 1 2 2 2 2 2 3
-2 -2 -1 -2 -1 -1 -1 -1 -1 -1 -1 -1 -1 -1 -1 -1 -1 -1 -1 -1 -1 -1 -1 -1 -0 -0 -0 -0 -0 0 0 0 1 1 1 1 1 1 1 1 1 2 2
-2 -2 -2 -2 -2 -2 -2 -2 -2 -2 -2 -2 -2 -2 -1 -1 -1 -1 -1 -1 -1 -1 -2 -1 -1 -1 -1 -1 -1 -1 -0 -0 -0 -0 -0 0 0 0 0 1 1 1 1
-3 -3 -3 -3 -3 -3 -3 -3 -3 -3 -2 -2 -2 -2 -2 -2 -2 -2 -2 -2 -2 -2 -2 -2 -2 -2 -2 -1 -1 -1 -1 -1 -1 -1 -1 -1 -1 -0 -0 -0 0 0 0
-4 -4 -4 -4 -4 -4 -4 -3 -3 -3 -3 -3 -3 -3 -3 -3 -3 -3 -3 -2 -3 -3 -3 -3 -3 -2 -2 -2 -2 -2 -2 -2 -1 -1 -1 -1 -1 -1 -1 -1 -0 -0 -0
-5 -5 -5 -4 -4 -4 -4 -4 -4 -4 -4 -4 -4 -4 -4 -4 -4 -3 -3 -3 -3 -3 -3 -3 -3 -3 -3 -3 -3 -3 -3 -2 -2 -2 -2 -2 -2 -2 -1 -1 -1 -1 -1
-5 -5 -5 -5 -5 -5 -5 -5 -5 -5 -5 -5 -5 -4 -4 -4 -4 -4 -4 -4 -4 -4 -4 -4 -4 -4 -4 -4 -4 -4 -4 -3 -3 -3 -3 -3 -3 -2 -2 -2 -2 -2 -2
-6 -6 -6 -6 -6 -6 -6 -6 -6 -6 -6 -5 -5 -5 -5 -5 -5 -5 -5 -5 -5 -5 -5 -5 -5 -4 -4 -4 -4 -4 -4 -4 -4 -4 -4 -3 -3 -3 -3 -2 -2 -2 -2
-7 -7 -7 -7 -7 -6 -6 -7 -7 -6 -6 -6 -6 -6 -6 -6 -5 -6 -5 -5 -5 -5 -5 -5 -5 -5 -5 -5 -5 -5 -5 -5 -4 -4 -4 -4 -4 -4 -3 -3 -3 -3 -3
-8 -8 -8 -7 -7 -7 -7 -7 -7 -7 -7 -7 -7 -7 -7 -6 -6 -6 -6 -6 -6 -6 -6 -6 -6 -6 -6 -6 -6 -6 -6 -6 -5 -5 -5 -5 -5 -4 -4 -4 -3 -3 -3
-8 -8 -8 -8 -8 -8 -8 -8 -8 -8 -8 -8 -7 -7 -7 -7 -7 -7 -7 -7 -7 -6 -6 -6 -6 -6 -6 -6 -6 -6 -6 -6 -6 -6 -6 -6 -6 -6 -6 -5 -4 -4 -4
Wind_Speed
5 5 5 6 6 6 6 6 6 6 6 6 6 6 6 6 5 5 5 6 6 6 5 4 3 2 2 3 3 4 4 3 2 2 2 3 3 3 3 3 3 3 4
5 4 4 5 5 5 5 5 5 4 4 5 5 5 5 5 5 5 5 5 6 6 5 4 3 2 1 1 3 3 3 2 3 2 1 2 2 3 3 3 3 3 3
5 4 4 3 4 5 5 5 5 5 4 4 3 4 4 4 4 4 4 5 5 6 6 6 4 4 2 2 2 2 2 2 2 2 1 1 1 2 2 3 3 3 3
5 4 4 3 3 4 4 4 3 2 2 2 1 2 3 3 4 4 4 4 5 5 5 6 6 5 4 3 3 2 3 2 1 2 2 1 1 2 3 3 3 3 3
4 4 3 3 3 3 3 2 2 1 1 1 1 1 2 2 3 3 3 4 4 4 4 5 6 5 5 4 4 3 3 3 2 2 2 2 2 2 3 3 3 3 2
4 3 3 3 3 3 2 1 1 1 1 1 1 1 2 1 2 2 2 3 3 3 4 4 4 3 4 5 4 4 4 3 4 3 3 3 2 3 3 4 4 3 3
3 3 2 3 2 1 1 1 1 1 1 1 1 1 2 1 1 1 2 2 3 3 3 3 3 2 3 4 4 5 5 5 5 4 4 4 4 3 3 4 4 4 3
3 2 2 2 2 1 1 1 1 1 0 1 1 0 1 2 1 1 1 1 2 3 3 3 2 2 2 3 4 5 6 6 6 6 6 5 5 5 4 4 5 5 4
3 3 2 1 2 1 0 1 1 2 2 1 1 2 1 2 2 1 1 1 1 2 2 2 2 2 2 2 3 5 6 6 7 6 6 6 6 6 5 4 4 5 5
3 3 2 1 1 0 0 1 1 1 2 2 1 1 1 2 1 2 2 1 2 2 3 3 3 3 3 3 4 4 5 6 7 7 6 7 7 6 6 6 5 5 5
3 4 3 2 1 1 1 1 1 1 2 2 2 1 1 1 1 2 3 3 2 3 3 3 4 4 4 3 3 4 5 5 6 6 6 7 7 7 6 6 5 5 5
3 4 4 2 2 2 2 1 2 2 2 2 2 2 2 2 2 3 3 4 4 3 3 3 3 4 3 3 4 5 5 5 6 6 6 6 7 7 6 6 6 5 6
2 3 4 3 2 2 2 2 2 2 2 3 3 3 3 3 2 3 3 3 3 3 2 3 3 3 3 3 4 5 6 6 7 7 6 6 7 7 7 6 7 7 7
2 3 3 3 4 3 3 2 2 3 2 3 4 3 3 3 3 3 3 3 3 3 3 4 2 3 4 4 5 6 6 7 8 8 8 7 7 7 7 7 6 7 7
2 3 3 3 4 3 3 2 2 3 2 3 4 4 3 3 3 3 3 4 4 4 5 4 3 3 4 5 6 5 6 8 9 8 9 9 8 8 7 8 8 7 8
2 2 3 3 3 3 3 2 2 2 2 3 3 4 4 3 3 3 3 3 3 5 5 3 3 3 4 5 6 6 7 9 9 9 10 10 9 9 9 9 8 8 8
3 3 3 3 4 3 3 3 3 3 3 3 3 4 5 4 3 3 3 3 3 3 6 5 3 3 3 4 5 6 7 7 8 9 10 11 10 10 9 10 9 8 8
3 3 3 3 4 4 3 3 3 3 3 4 4 4 4 4 4 3 3 4 4 4 5 6 5 4 4 4 4 5 6 7 8 9 10 10 10 10 10 10 9 9 9
3 3 3 3 4 4 4 3 3 4 4 4 4 4 4 4 4 4 4 4 4 4 4 5 5 4 4 3 4 4 5 5 7 8 9 9 10 10 10 10 9 10 10
3 3 3 4 4 4 4 4 4 4 5 5 4 4 5 5 5 5 4 4 4 4 4 4 4 4 4 3 3 3 4 4 5 6 6 7 8 9 10 10 9 10 10
4 4 4 4 4 4 4 4 4 5 5 4 4 5 5 7 7 6 5 5 5 4 4 5 4 4 3 3 4 3 5 4 4 3 4 5 5 6 8 9 8 9 10
4 4 4 4 5 4 7 7 6 5 5 5 5 5 5 6 8 8 9 8 7 6 6 5 5 5 6 5 4 4 4 4 4 2 3 5 4 5 7 7 9 9 9
4 4 5 5 5 6 8 8 8 5 4 5 5 5 5 6 7 5 7 8 8 9 8 7 6 7 6 6 5 6 5 5 5 4 3 6 4 5 7 8 8 9 9
4 4 5 5 6 7 9 9 9 5 4 5 5 6 6 6 6 6 5 5 6 7 8 7 7 7 7 6 6 7 6 5 4 3 3 5 4 5 5 7 8 9 9
5 5 5 5 6 7 9 9 8 4 4 5 5 6 6 6 9 8 5 6 6 6 8 9 9 9 9 9 7 4 3 3 4 3 3 3 3 4 4 4 6 7 8
5 5 6 5 6 7 9 9 8 4 4 5 4 5 7 7 8 8 5 5 6 6 5 5 6 7 7 7 7 5 4 4 4 3 2 2 2 1 3 2 3 5 7
Wind_Direction
68 69 65 66 69 71 74 71 71 69 64 58 59 63 60 55 53 51 43 40 43 43 43 50 54 69 84 82 92 83 74 76 70 106 136 135 135 140 140 139 132 127 120
74 70 67 64 63 68 76 80 84 82 73 67 56 53 57 57 51 47 43 38 34 34 32 37 38 40 72 92 85 89 74 67 61 61 115 146 147 153 156 158 158 150 136
79 74 68 63 60 66 76 79 74 73 67 63 50 42 46 46 49 47 44 41 34 30 31 32 30 28 37 62 69 68 71 58 38 22 22 183 172 168 175 178 178 172 167
76 79 65 53 62 70 71 75 67 72 57 55 38 20 28 25 33 39 42 40 37 31 24 29 27 22 32 42 46 37 31 4 351 341 347 288 227 214 196 181 177 184 186
62 77 64 49 62 74 70 71 68 87 84 47 27 21 18 17 12 20 30 29 27 27 19 15 15 19 23 22 27 22 5 353 316 298 305 321 268 242 222 208 200 196 189
51 66 66 46 61 65 52 57 110 76 108 113 27 7 347 1 13 20 10 11 10 12 11 7 5 1 8 14 8 0 349 335 328 298 282 284 282 263 239 224 211 204 201
50 61 57 50 47 68 61 67 111 128 92 81 58 342 336 340 355 9 3 7 360 356 359 358 356 352 344 348 348 342 333 331 316 304 288 276 264 258 249 233 220 210 213
41 52 53 50 44 45 36 70 88 141 134 118 127 128 317 313 328 331 340 344 341 345 344 337 337 327 327 330 324 327 323 322 313 295 297 290 279 257 254 249 235 221 217
22 34 33 54 53 58 253 248 190 169 186 202 152 158 181 237 295 296 276 292 314 313 313 313 311 300 295 298 306 308 315 315 312 311 306 308 295 271 258 255 256 238 228
14 16 18 30 77 82 303 296 249 226 182 194 210 237 215 178 199 285 291 278 277 276 292 300 292 286 282 283 288 295 300 305 310 307 308 305 310 284 267 257 259 257 245
1 10 15 14 0 296 263 309 284 234 208 199 196 204 214 222 208 213 260 281 281 260 273 275 270 267 260 267 282 290 292 300 305 305 302 305 304 307 276 264 259 266 251
357 1 1 3 352 330 294 275 259 220 218 228 213 196 196 200 208 212 236 259 268 266 264 271 264 257 246 251 269 286 290 297 299 299 300 303 302 310 299 273 264 266 263
337 341 352 347 336 317 308 312 291 242 220 225 226 232 228 233 224 223 229 249 260 272 267 259 254 250 248 251 269 280 284 289 291 291 290 290 298 302 303 292 273 266 266
292 326 328 331 333 328 310 292 298 270 242 234 241 242 246 248 239 233 227 232 258 264 252 253 260 244 255 262 271 275 278 280 280 282 282 281 285 288 298 286 285 276 271
329 330 326 328 326 324 315 310 292 283 268 249 248 243 247 256 250 248 235 226 228 245 251 244 240 249 260 263 274 279 278 278 273 273 273 276 275 276 284 282 278 276 269
326 322 321 321 318 319 317 307 303 308 287 276 266 248 247 258 260 258 243 239 236 234 249 248 247 266 269 268 270 271 271 276 274 272 270 268 266 268 271 276 272 271 267
321 313 308 307 306 307 315 301 300 311 287 285 280 260 253 252 249 252 251 242 242 238 253 269 272 283 265 270 284 276 270 272 276 276 273 267 263 265 267 271 266 269 268
322 314 306 297 295 296 299 292 289 298 279 277 277 271 270 263 249 246 242 245 246 239 244 262 273 272 262 269 278 276 273 267 274 275 274 270 267 267 269 268 263 266 266
316 319 310 292 289 290 286 286 278 280 272 265 266 264 268 268 261 257 247 247 250 250 246 251 266 272 271 284 287 284 289 283 279 275 271 271 271 270 275 269 263 264 264
306 306 305 297 296 293 288 290 285 283 277 268 265 264 266 263 259 252 251 249 249 248 243 246 260 271 275 280 269 273 281 277 280 282 278 276 275 275 277 270 269 268 267
312 306 305 303 302 293 285 287 281 279 277 273 271 268 268 271 271 267 260 251 246 247 246 246 251 264 265 272 263 264 270 279 270 263 278 277 282 279 278 271 265 266 269
310 308 301 298 297 294 296 294 290 278 277 275 277 278 278 276 274 276 274 269 260 250 244 244 251 249 252 255 258 261 267 274 271 254 264 274 269 267 270 267 265 265 268
302 301 299 295 290 291 297 295 292 284 277 270 273 276 277 276 281 281 281 279 271 259 250 241 246 248 251 249 246 253 252 255 258 255 265 267 256 261 269 269 267 263 262
296 295 295 292 292 295 300 298 299 289 276 271 271 271 271 274 271 277 275 276 269 260 254 247 244 249 255 254 242 243 246 254 269 261 244 252 260 266 276 272 266 260 262
292 291 290 289 291 297 300 298 301 284 278 275 273 272 273 271 278 284 273 269 273 270 265 257 257 261 264 264 259 253 242 252 266 262 230 239 264 282 279 266 267 271 275
287 293 296 292 287 289 298 301 298 281 277 281 279 276 278 286 289 288 271 261 264 269 273 271 265 266 264 261 255 240 230 242 263 259 219 226 253 299 289 261 267 286 289
Height
1540 1541 1541 1542 1542 1543 1544 1544 1545 1546 1546 1548 1548 1548 1549 1549 1550 1550 1551 1552 1553 1553 1553 1554 1554 1554 1554 1555 1555 1555 1556 1556 1557 1558 1558 1559 1559 1559 1560 1560 1560 1561 1561
1538 1539 1540 1540 1541 1541 1542 1543 1543 1544 1545 1546 1547 1547 1547 1548 1548 1549 1549 1550 1551 1551 1552 1552 1552 1552 1553 1553 1553 1553 1554 1554 1555 1556 1557 1557 1558 1558 1558 1559 1559 1560 1560
1537 1538 1538 1539 1539 1540 1540 1541 1542 1542 1543 1544 1545 1545 1546 1546 1546 1547 1547 1548 1549 1549 1549 1550 1550 1550 1551 1551 1551 1552 1551 1552 1553 1553 1554 1555 1556 1556 1556 1557 1557 1558 1558
1535 1536 1536 1537 1537 1538 1538 1539 1540 1540 1541 1541 1542 1543 1543 1544 1544 1545 1545 1546 1546 1547 1547 1547 1547 1548 1548 1548 1549 1550 1549 1550 1550 1551 1551 1552 1553 1554 1554 1555 1555 1556 1556
1533 1533 1534 1534 1535 1536 1536 1537 1537 1538 1538 1539 1540 1540 1541 1541 1542 1542 1543 1543 1544 1544 1544 1544 1545 1545 1546 1546 1547 1547 1547 1547 1548 1548 1549 1549 1550 1551 1551 1552 1552 1553 1553
1531 1531 1532 1532 1533 1533 1534 1534 1535 1536 1536 1537 1537 1538 1538 1539 1539 1540 1540 1541 1541 1541 1542 1542 1542 1543 1543 1543 1544 1544 1544 1545 1545 1545 1546 1546 1547 1547 1548 1549 1549 1550 1550
1528 1528 1529 1529 1530 1530 1531 1531 1532 1533 1533 1534 1535 1535 1535 1536 1536 1536 1537 1538 1538 1538 1539 1539 1539 1540 1540 1541 1541 1541 1542 1542 1542 1542 1543 1543 1543 1544 1545 1545 1546 1546 1547
1525 1525 1525 1526 1526 1527 1528 1528 1529 1529 1530 1531 1532 1532 1532 1533 1532 1533 1534 1534 1535 1535 1536 1536 1536 1537 1537 1537 1538 1538 1538 1539 1539 1539 1539 1539 1540 1540 1541 1542 1543 1543 1544
1521 1522 1522 1523 1523 1524 1524 1525 1525 1526 1527 1528 1529 1530 1530 1528 1528 1529 1530 1531 1531 1532 1533 1533 1533 1533 1534 1534 1534 1534 1534 1535 1535 1535 1535 1536 1536 1536 1537 1538 1539 1539 1540
1518 1519 1519 1519 1520 1521 1521 1522 1522 1522 1523 1524 1525 1526 1527 1527 1527 1525 1526 1527 1528 1528 1529 1529 1529 1530 1530 1530 1530 1530 1531 1531 1531 1531 1531 1532 1532 1532 1533 1534 1534 1535 1535
1515 1515 1515 1516 1516 1517 1517 1518 1518 1519 1519 1520 1521 1521 1522 1523 1523 1523 1521 1522 1523 1524 1524 1525 1525 1525 1526 1526 1526 1526 1527 1527 1527 1527 1527 1527 1528 1527 1528 1529 1530 1530 1531
1511 1511 1512 1512 1512 1513 1513 1513 1514 1514 1515 1516 1516 1517 1518 1518 1518 1519 1518 1517 1518 1518 1519 1520 1520 1521 1521 1521 1521 1522 1522 1522 1523 1522 1522 1523 1523 1523 1524 1524 1525 1526 1527
1507 1507 1508 1508 1508 1509 1509 1509 1510 1510 1510 1511 1511 1512 1513 1514 1514 1515 1515 1514 1513 1513 1513 1514 1515 1516 1516 1517 1517 1517 1517 1518 1518 1518 1518 1518 1518 1518 1518 1519 1520 1521 1522
1503 1503 1504 1504 1504 1504 1504 1505 1505 1505 1505 1505 1506 1506 1507 1509 1509 1510 1510 1510 1509 1508 1508 1508 1510 1511 1511 1511 1512 1512 1512 1512 1512 1512 1513 1513 1513 1513 1513 1514 1515 1515 1517
1499 1500 1500 1500 1500 1500 1500 1500 1500 1500 1500 1501 1501 1501 1502 1503 1504 1504 1505 1506 1506 1504 1502 1502 1504 1505 1506 1506 1506 1506 1506 1507 1507 1507 1507 1507 1508 1508 1508 1509 1509 1510 1511
1496 1496 1495 1495 1496 1496 1496 1496 1496 1496 1496 1496 1496 1496 1497 1498 1498 1499 1499 1500 1500 1500 1498 1497 1498 1499 1500 1500 1500 1500 1501 1501 1501 1501 1501 1501 1502 1502 1503 1503 1503 1504 1505
1491 1491 1491 1491 1491 1491 1491 1491 1491 1491 1491 1492 1492 1492 1491 1492 1493 1493 1494 1494 1495 1495 1493 1492 1493 1493 1494 1494 1494 1495 1495 1495 1494 1495 1495 1495 1496 1496 1497 1497 1497 1498 1498
1487 1487 1486 1486 1487 1487 1487 1486 1486 1486 1486 1486 1486 1486 1486 1487 1487 1487 1488 1488 1488 1488 1488 1486 1486 1487 1488 1488 1488 1488 1488 1489 1489 1489 1489 1489 1490 1490 1491 1491 1491 1492 1493
1483 1483 1482 1482 1482 1482 1482 1481 1481 1481 1481 1481 1481 1481 1481 1481 1481 1481 1482 1482 1482 1483 1482 1482 1481 1481 1481 1482 1482 1482 1482 1482 1482 1483 1483 1483 1483 1484 1484 1485 1484 1486 1487
1479 1478 1478 1478 1477 1477 1477 1476 1476 1476 1475 1475 1475 1476 1476 1475 1475 1476 1476 1476 1476 1477 1477 1476 1476 1475 1475 1475 1476 1475 1475 1475 1475 1476 1476 1477 1477 1477 1477 1478 1478 1479 1480
1475 1474 1473 1473 1473 1472 1472 1471 1471 1471 1470 1470 1470 1470 1470 1470 1470 1470 1470 1470 1470 1470 1470 1470 1469 1469 1469 1469 1469 1469 1469 1468 1469 1469 1469 1470 1470 1470 1470 1471 1471 1472 1473
1470 1470 1469 1468 1468 1467 1467 1466 1466 1466 1465 1464 1464 1464 1464 1464 1464 1464 1465 1465 1465 1464 1464 1464 1463 1463 1463 1463 1464 1463 1463 1462 1461 1463 1463 1463 1464 1463 1463 1464 1464 1465 1466
1466 1465 1464 1463 1463 1463 1462 1462 1461 1460 1459 1459 1459 1458 1458 1458 1459 1458 1458 1458 1458 1458 1459 1458 1457 1456 1457 1457 1458 1457 1457 1456 1456 1456 1457 1455 1457 1456 1457 1456 1458 1459 1460
1462 1461 1460 1459 1458 1458 1457 1457 1456 1455 1454 1454 1454 1453 1453 1453 1453 1452 1452 1451 1451 1451 1452 1452 1451 1451 1451 1452 1452 1452 1451 1451 1451 1451 1452 1450 1449 1450 1449 1450 1451 1452 1453
1457 1456 1455 1454 1453 1453 1453 1452 1451 1449 1449 1448 1448 1448 1448 1448 1447 1447 1446 1445 1444 1445 1446 1446 1446 1446 1446 1446 1446 1446 1445 1445 1444 1444 1445 1445 1443 1443 1442 1443 1445 1446 1447
1453 1452 1451 1450 1449 1448 1448 1447 1446 1445 1443 1443 1443 1443 1443 1442 1442 1441 1441 1440 1439 1438 1439 1439 1439 1439 1440 1439 1440 1440 1439 1439 1438 1438 1438 1439 1438 1438 1436 1436 1438 1439 1440